Tracking 33199 objects as of 16-Feb-2026
HD Live streaming from Space Station
objects crossing your sky now

STARLINK-35017

Track STARLINK-35017 now!
10-day predictions
STARLINK-35017 is classified as:


NORAD ID: 65292
Int'l Code: 2025-184V
Perigee: 554.8 km
Apogee: 558.4 km
Inclination: 97.6 °
Period: 95.6 minutes
Semi major axis: 6927 km
RCS: Unknown
Launch date: August 22, 2025
Source: United States (US)
Launch site: AIR FORCE WESTERN TEST RANGE (AFWTR)
Your satellite tracking list
Your tracking list is empty




NASA's NSSDC Master Catalog

Two Line Element Set (TLE):
1 65292U 25184V   26047.61678620  .00006502  00000-0  45426-3 0  9996
2 65292  97.6001 101.9386 0002547 112.8182 247.3315 15.05663177 28082
Source of the keplerian elements: AFSPC